Погода в Миролюбове

Украина / Житомирская область     51°14′57″N   28°07′10″E
темп.,
°C
ветер,
м/с
пор.,
м/с
влажн.,
%
обл.,
%
осадки,
мм/ч
давл.,
гПа
погр.,
м
18 мая, вт
вт1800:00+13в1192100 0.1 100210
03:00+13юв229593 0.4 100258
06:00+12ююв229685 0.1 100154
09:00+16ююв237984 0.1 1002440
12:00+17юв237950 1.7 1001428
15:00+19вюв2270100 4.1 1000941
18:00+15в2292100 3.3 99961
21:00+13с2496100 6.9 999105
19 мая, ср
ср1900:00+13ссз3695100 0.6 999158
03:00+13сз4999100 1.6 1000355
06:00+12ссз51098100 3.4 1001524
09:00+10сз41198100 8.0 1003512
12:00+10сз4998100 4.1 1005708
15:00+11сз51295100 6.4 1006819
18:00+11ссз51192100 0.3 1007880
21:00+11сз31194100 0.3 1008666
20 мая, чт
чт2000:00+11сз41092100 0.1 1008562
03:00+10сз41292100 0.4 1008667
06:00+10сз31191100 0.1 1008646
09:00+11зсз2589100 0.2 1009360
12:00+14сз4683100 1.1 1009877
15:00+16ссз466498 2.3 10091513
18:00+17с465517 0.1 10101698
21:00+11ссз228370 0.1 101225
21 мая, пт
пт2100:00+8ссз229362 0.0 101319
03:00+7зсз2295100 0.0 101516
06:00+7ссз2696100 0.0 1016145
09:00+12ссз3572100 0.0 1016464
12:00+16ссз3347100 0.0 10161307
15:00+17ссз3240100 0.0 10171833
18:00+17с224225 0.0 10171455
21:00+11ссз2269100 0.0 101828
22 мая, сб
сб2200:00+8с228115 0.0 101921
03:00+7ссв22831 0.0 101812
06:00+7всв11840 0.0 101911
09:00+15в12550 0.0 1018509
12:00+19юв22423 0.0 10171562
15:00+20ююз2240100 0.0 10161962
18:00+19ююз224874 0.0 10151008
21:00+13ю2272100 0.0 101511